Location: Alma
(38.7220°N, 88.9090°W)
Time: 14:53:20
(UTC-06:00)

Vanguard 2 Rocket - Pass Details

Date: 23 November 2019
Orbit: 554 x 3326 km, 32.9° (Epoch: 10 December)

Event Time Altitude Azimuth Distance (km) Brightness Sun altitude
Rises 03:24:41 0° 266° (W) 2,901 - -39.0°
Reaches altitude 10° 03:26:48 10° 256° (WSW) 2,140 - -38.6°
Maximum altitude 03:31:12 35° 190° (S) 1,401 - -37.8°
Exits shadow 03:33:42 26° 150° (SSE) 1,887 8.6 -37.3°
Drops below altitude 10° 03:37:53 10° 128° (SE) 3,281 10.2 -36.5°
Sets 03:41:57 0° 121° (ESE) 4,732 11.3 -35.7°
